[[{"header":{"parameterUnit":"m.s-1","parameterCategory":1,"la1":30.2991,"la2":30.254,"lo1":-89.0895,"lo2":-89.0444,"dy":0.0017,"dx":0.0017,"nx":28,"ny":28,"refTime":"2026-01-11T03:00:00:Z","depth":0,"parameterNumber":2,"parameterNumberName":"U-component_of_WINDS"},"data":[0,0,0,0,0,0,0,0,0,0,0,0,0,0,0,0,0,0,0,0,0,0,0,0,0,0,0,0,0,0,0,0,0,0,0,0,0,0,0,0,0,0,0,0,0,0,0,0,0,0,0,0,0,0,0,0,0,0,-2.585,-2.5851,0,-2.5941,-2.5942,-2.5943,-2.5894,-2.5892,-2.5889,-2.5887,-2.598,-2.5984,-2.5989,0,0,0,0,0,0,0,0,0,0,0,0,0,-2.5632,-2.5636,-2.585,-2.5851,-2.5852,-2.5941,-2.5942,-2.5943,-2.5894,-2.5891,-2.5888,-2.5886,-2.5978,-2.5984,-2.5989,0,0,0,0,0,0,0,0,0,0,0,0,0,-2.5725,-2.5638,-2.585,-2.5838,-2.5838,-2.5941,-2.5942,-2.5944,-2.5895,-2.5891,-2.5888,-2.5884,-2.5976,-2.5983,-2.599,-2.6109,0,0,-2.6012,-2.6015,0,0,0,0,0,0,0,0,-2.572,-2.5733,-2.5839,-2.5839,-2.5839,-2.5902,-2.5899,-2.5999,-2.5896,-2.5874,-2.5887,-2.5882,-2.5957,-2.5965,-2.5991,-2.6113,-2.6117,-2.6013,-2.6017,-2.602,-2.6022,0,0,0,0,0,0,0,-2.5714,-2.5729,-2.5886,-2.5841,-2.5841,-2.5828,-2.5837,-2.5918,-2.5935,-2.5875,-2.5872,-2.5883,-2.5956,-2.5984,-2.5992,-2.6119,-2.6013,-2.6019,-2.6023,-2.6026,-2.6342,-2.6346,0,0,0,0,0,0,-2.5708,-2.5724,-2.5883,-2.5889,-2.5769,-2.5835,-2.5846,-2.5886,-2.5934,-2.5938,-2.5886,-2.5881,-2.5973,-2.5984,-2.5996,-2.6138,-2.602,-2.6027,-2.6031,-2.6338,-2.6343,-2.6347,0,0,0,0,0,0,-2.5703,-2.5723,-2.5879,-2.5806,-2.5824,-2.5843,-2.5889,-2.589,-2.5917,-2.5942,-2.5945,-2.5912,-2.5971,-2.5985,-2.6081,-2.614,-2.603,-2.6037,-2.6333,-2.6339,-2.6345,-2.6422,0,0,0,0,0,0,-2.5697,-2.5721,-2.5767,-2.5807,-2.5829,-2.5964,-2.5892,-2.5894,-2.593,-2.5923,-2.5967,-2.597,-2.5969,-2.607,-2.6088,-2.6148,-2.6042,-2.6328,-2.6336,-2.6343,-2.6415,-2.643,-2.6444,0,0,0,0,0,-2.569,-2.5785,-2.577,-2.5789,-2.5886,-2.5968,-2.598,-2.5977,-2.5935,-2.5981,-2.5996,-2.5969,-2.613,-2.6081,-2.61,-2.6163,-2.6324,-2.6334,-2.6342,-2.6408,-2.6427,-2.6444,0,0,0,0,0,0,-2.5752,-2.579,-2.5773,-2.5885,-2.5923,-2.5959,-2.6017,-2.5997,-2.6048,-2.604,-2.6033,-2.6044,-2.6143,-2.6162,-2.6106,-2.628,-2.6221,-2.6234,-2.6264,-2.6282,-2.6297,-2.6291,-2.6048,0,0,0,0,0,-2.5779,-2.5842,-2.5872,-2.5967,-2.5987,-2.5999,-2.6034,-2.6028,-2.6068,-2.6084,-2.6107,-2.6146,-2.6205,-2.6245,-2.6301,-2.6417,-2.6425,-2.6469,-2.6484,-2.6496,-2.6508,-2.657,-2.659,-2.6377,-2.6377,-2.6377,0,0,-2.5835,-2.5863,-2.5904,-2.598,-2.6009,-2.6074,-2.6013,-2.6085,-2.6133,-2.6094,-2.6186,-2.6204,-2.6247,-2.6354,-2.6401,-2.6373,-2.6568,-2.6507,-2.6517,-2.6522,-2.6582,-2.6602,-2.662,-2.6384,-2.6382,-2.6381,0,0,-2.597,-2.5998,-2.608,-2.6111,-2.6155,-2.6162,-2.6182,-2.6221,-2.6231,-2.6323,-2.6295,-2.6352,-2.6455,-2.6486,-2.6516,-2.6662,-2.6638,-2.668,-2.6757,-2.6818,-2.6834,-2.6849,-2.6901,-2.692,-2.6692,-2.6692,-2.6692,0,-2.6034,-2.6131,-2.6125,-2.6199,-2.6233,-2.6201,-2.6284,-2.6314,-2.6374,-2.6399,-2.6365,-2.6493,-2.6519,-2.6632,-2.6668,-2.6693,-2.6715,-2.6676,-2.6832,-2.6847,-2.6861,-2.6911,-2.693,-2.6697,-2.6696,-2.6696,-2.6695,0,-2.6208,-2.6276,-2.6337,-2.6396,-2.6437,-2.6515,-2.652,-2.6562,-2.6552,-2.6562,-2.6656,-2.6686,-2.6748,-2.6774,-2.6765,-2.6886,-2.6866,-2.6833,-2.6774,-2.6886,-2.6933,-2.6952,-2.6704,-2.6702,-2.67,-2.6699,0,0,-2.6387,-2.6441,-2.6463,-2.649,-2.6536,-2.6588,-2.6664,-2.6724,-2.676,-2.6803,-2.6866,-2.6953,-2.6922,-2.6956,-2.695,-2.7003,-2.7116,-2.6963,-2.6964,-2.6991,-2.7251,-2.7276,-2.7298,-2.71,-2.7104,-2.7107,-2.7247,0,-2.6525,-2.6659,-2.6655,-2.678,-2.6842,-2.6811,-2.6877,-2.6913,-2.6924,-2.6978,-2.6989,-2.7051,-2.7006,-2.7026,-2.7077,-2.7092,-2.7168,-2.7081,-2.7159,-2.7162,-2.7151,-2.7323,-2.735,-2.7482,-2.7265,-2.7268,-2.7271,0,-2.6706,-2.6755,-2.6885,-2.6921,-2.6947,-2.7007,-2.7061,-2.7113,-2.7152,-2.7156,-2.7193,-2.7178,-2.7254,-2.7192,-2.7297,-2.7238,-2.7269,-2.7281,-2.7286,-2.7294,-2.7224,-2.7336,-2.7523,-2.7543,-2.7299,-2.7297,-2.7295,0,-2.6824,-2.6922,-2.7013,-2.7036,-2.708,-2.7123,-2.7143,-2.7178,-2.7214,-2.7261,-2.7285,-2.734,-2.737,-2.7413,-2.7413,-2.7367,-2.7519,-2.7456,-2.7524,-2.7525,-2.7559,-2.7557,-2.7755,-2.7578,-2.7577,-2.7577,-2.7577,0,-2.698,-2.7062,-2.7066,-2.7122,-2.7212,-2.7206,-2.7294,-2.731,-2.7342,-2.7399,-2.7376,-2.743,-2.7427,-2.7482,-2.7482,-2.7569,-2.7582,-2.7588,-2.7587,-2.759,-2.759,-2.7612,-2.7603,-2.7582,-2.7581,-2.758,-2.7579,0,-2.7128,-2.7135,-2.7231,-2.7265,-2.7275,-2.734,-2.7369,-2.7421,-2.7429,-2.7503,-2.752,-2.7533,-2.7597,-2.76,-2.7674,-2.7673,-2.7779,-2.7768,-2.7766,-2.7764,-2.7832,-2.7826,-2.8052,-2.8081,-2.7884,-2.7886,-2.7888,0,-2.7228,-2.729,-2.733,-2.7367,-2.739,-2.7451,-2.7487,-2.7482,-2.7521,-2.7569,-2.7616,-2.7677,-2.7726,-2.7829,-2.7845,-2.79,-2.7891,-2.7966,-2.7899,-2.79,-2.7892,-2.7889,-2.7895,-2.7979,-2.7981,-2.7983,-2.7985,0,-2.7405,-2.7405,-2.7458,-2.7513,-2.7558,-2.7601,-2.764,-2.7672,-2.7672,-2.7717,-2.7782,-2.7819,-2.7894,-2.7955,-2.8009,-2.8029,-2.8007,-2.8005,-2.8024,-2.8029,-2.8026,-2.8028,-2.7803,-2.8,-2.7999,-2.7998,-2.7997,-2.7996,-2.7532,-2.7585,-2.7622,-2.7682,-2.7712,-2.7749,-2.78,-2.7815,-2.7869,-2.7929,-2.7923,-2.7995,-2.803,-2.81,-2.8125,-2.818,-2.8154,-2.8181,-2.8188,-2.8195,-2.8203,-2.8016,-2.819,-2.8189,-2.8189,-2.8188,-2.8188,0,-2.7708,-2.773,-2.7785,-2.7842,-2.7889,-2.7864,-2.7906,-2.7947,-2.8011,-2.8046,-2.8094,-2.8168,-2.8227,-2.8246,-2.8303,-2.8344,-2.8335,-2.8359,-2.8356,-2.8361,-2.8222,-2.8201,-2.8365,-2.8365,-2.8365,-2.8365,-2.8365,-2.8365,-2.7805,-2.7894,-2.7898,-2.8,-2.8021,-2.8092,-2.8118,-2.8152,-2.818,-2.8264,-2.8312,-2.8324,-2.8353,-2.8411,-2.8464,-2.8468,-2.849,-2.8518,-2.8518,-2.8389,-2.8371,-2.8354,-2.8334,-2.8523,-2.8523,-2.8652,-2.8653,-2.8654]},{"header":{"parameterUnit":"m.s-1","parameterCategory":1,"la1":30.2991,"la2":30.254,"lo1":-89.0895,"lo2":-89.0444,"dy":0.0017,"dx":0.0017,"nx":28,"ny":28,"refTime":"2026-01-11T03:00:00:Z","depth":0,"parameterNumber":3,"parameterNumberName":"V-component_of_WINDS"},"data":[0,0,0,0,0,0,0,0,0,0,0,0,0,0,0,0,0,0,0,0,0,0,0,0,0,0,0,0,0,0,0,0,0,0,0,0,0,0,0,0,0,0,0,0,0,0,0,0,0,0,0,0,0,0,0,0,0,0,-7.2245,-7.2246,0,-7.2409,-7.2411,-7.2413,-7.2338,-7.2333,-7.2329,-7.2326,-7.2488,-7.2496,-7.2504,0,0,0,0,0,0,0,0,0,0,0,0,0,-7.1859,-7.1867,-7.2244,-7.2247,-7.2249,-7.2409,-7.2411,-7.2413,-7.2338,-7.2333,-7.2328,-7.2324,-7.2485,-7.2495,-7.2504,0,0,0,0,0,0,0,0,0,0,0,0,0,-7.2025,-7.1869,-7.2244,-7.2231,-7.2231,-7.2408,-7.2411,-7.2414,-7.2339,-7.2333,-7.2327,-7.2321,-7.2482,-7.2494,-7.2506,-7.2704,0,0,-7.2543,-7.2548,0,0,0,0,0,0,0,0,-7.2016,-7.204,-7.2231,-7.2232,-7.2233,-7.2347,-7.2334,-7.2511,-7.2341,-7.2298,-7.2325,-7.2318,-7.2445,-7.246,-7.2504,-7.2711,-7.2718,-7.2544,-7.2552,-7.2557,-7.256,0,0,0,0,0,0,0,-7.2005,-7.2032,-7.2309,-7.2233,-7.2235,-7.2214,-7.2231,-7.2368,-7.2404,-7.2301,-7.2296,-7.2317,-7.2445,-7.2493,-7.2508,-7.2721,-7.2544,-7.2555,-7.2562,-7.2567,-7.3097,-7.3103,0,0,0,0,0,0,-7.1994,-7.2023,-7.2304,-7.2314,-7.2107,-7.2226,-7.2245,-7.2316,-7.2402,-7.241,-7.2322,-7.2313,-7.2475,-7.2493,-7.2513,-7.275,-7.2557,-7.2568,-7.2575,-7.309,-7.3098,-7.3106,0,0,0,0,0,0,-7.1986,-7.202,-7.2297,-7.2167,-7.2201,-7.224,-7.232,-7.2323,-7.2371,-7.2418,-7.2423,-7.2365,-7.2471,-7.2496,-7.2657,-7.2755,-7.2574,-7.2585,-7.3082,-7.3093,-7.3102,-7.3226,0,0,0,0,0,0,-7.1976,-7.2018,-7.2095,-7.217,-7.2209,-7.2441,-7.2326,-7.233,-7.2393,-7.2382,-7.246,-7.2467,-7.2468,-7.2639,-7.2669,-7.2768,-7.2594,-7.3074,-7.3087,-7.3099,-7.3213,-7.3239,-7.3261,0,0,0,0,0,-7.1962,-7.2122,-7.2099,-7.2134,-7.2306,-7.2447,-7.2469,-7.2469,-7.2401,-7.2478,-7.2508,-7.2464,-7.2739,-7.2656,-7.2689,-7.2794,-7.3068,-7.3083,-7.3098,-7.3203,-7.3234,-7.3261,0,0,0,0,0,0,-7.2056,-7.2132,-7.2107,-7.2297,-7.2367,-7.2434,-7.2531,-7.2502,-7.2591,-7.2578,-7.2571,-7.259,-7.2757,-7.2791,-7.2698,-7.2989,-7.2892,-7.2915,-7.2961,-7.2991,-7.3015,-7.3003,-7.2604,0,0,0,0,0,-7.2099,-7.2209,-7.2269,-7.243,-7.2466,-7.2493,-7.2555,-7.2549,-7.2619,-7.2648,-7.269,-7.2759,-7.286,-7.2927,-7.3024,-7.3218,-7.3233,-7.3305,-7.3329,-7.3349,-7.3368,-7.3472,-7.3505,-7.3156,-7.3156,-7.3155,0,0,-7.2188,-7.2243,-7.2313,-7.245,-7.2503,-7.2616,-7.2518,-7.2641,-7.2724,-7.2666,-7.2821,-7.2855,-7.2931,-7.3109,-7.319,-7.3143,-7.3468,-7.3368,-7.3383,-7.3392,-7.3491,-7.3524,-7.3554,-7.3166,-7.3164,-7.3163,0,0,-7.2409,-7.2462,-7.2603,-7.2658,-7.2741,-7.2757,-7.2791,-7.2864,-7.2884,-7.3041,-7.2999,-7.3096,-7.3271,-7.3327,-7.3379,-7.362,-7.3582,-7.3651,-7.3776,-7.3878,-7.3905,-7.3929,-7.4015,-7.4046,-7.367,-7.3671,-7.3671,0,-7.2509,-7.2679,-7.2678,-7.2805,-7.2866,-7.282,-7.2961,-7.3014,-7.3123,-7.3165,-7.3111,-7.333,-7.3378,-7.3569,-7.3628,-7.3671,-7.3708,-7.3642,-7.3902,-7.3926,-7.3949,-7.403,-7.4062,-7.3678,-7.3678,-7.3677,-7.3676,0,-7.2798,-7.2916,-7.3019,-7.3128,-7.32,-7.3333,-7.335,-7.3423,-7.341,-7.3432,-7.359,-7.3646,-7.3753,-7.3798,-7.3786,-7.3987,-7.3955,-7.3902,-7.3805,-7.399,-7.4066,-7.4097,-7.369,-7.3687,-7.3685,-7.3683,0,0,-7.3083,-7.3189,-7.3227,-7.3276,-7.3363,-7.3453,-7.3583,-7.3689,-7.3751,-7.3827,-7.3935,-7.4085,-7.4036,-7.4095,-7.4088,-7.4178,-7.4364,-7.4113,-7.4115,-7.4158,-7.4588,-7.4627,-7.4664,-7.434,-7.4346,-7.4351,-7.4581,0,-7.331,-7.3541,-7.3543,-7.3754,-7.3862,-7.382,-7.3933,-7.3997,-7.4021,-7.4114,-7.4139,-7.4245,-7.4173,-7.4208,-7.4294,-7.4323,-7.445,-7.4307,-7.4438,-7.4443,-7.4421,-7.4704,-7.4746,-7.4961,-7.4611,-7.4616,-7.462,0,-7.3606,-7.3694,-7.3917,-7.3988,-7.4033,-7.4135,-7.4232,-7.4323,-7.4394,-7.4405,-7.447,-7.445,-7.458,-7.4479,-7.4657,-7.456,-7.4613,-7.4635,-7.4644,-7.4656,-7.4543,-7.4723,-7.503,-7.5062,-7.4667,-7.4663,-7.466,0,-7.3791,-7.3965,-7.4121,-7.4163,-7.425,-7.4323,-7.4362,-7.4428,-7.4491,-7.4575,-7.4615,-7.4713,-7.4766,-7.484,-7.4846,-7.4772,-7.5026,-7.4925,-7.5037,-7.5037,-7.5092,-7.5089,-7.5412,-7.5127,-7.5126,-7.5126,-7.5125,0,-7.4045,-7.4183,-7.4205,-7.4301,-7.4453,-7.4453,-7.4603,-7.4636,-7.4694,-7.4794,-7.4762,-7.4856,-7.4858,-7.4953,-7.4958,-7.5104,-7.5128,-7.5139,-7.5139,-7.5143,-7.5141,-7.5178,-7.5163,-7.5134,-7.5133,-7.5131,-7.5129,0,-7.4278,-7.4299,-7.4466,-7.4535,-7.4555,-7.4664,-7.4722,-7.4812,-7.4832,-7.4959,-7.4988,-7.5019,-7.513,-7.5143,-7.5271,-7.5274,-7.545,-7.5434,-7.5427,-7.5425,-7.5535,-7.5525,-7.5893,-7.5941,-7.5625,-7.5628,-7.5631,0,-7.4438,-7.4544,-7.4624,-7.469,-7.4734,-7.4839,-7.4904,-7.4907,-7.4976,-7.5065,-7.5144,-7.5251,-7.5338,-7.5515,-7.5548,-7.5645,-7.5631,-7.5753,-7.5645,-7.5645,-7.5632,-7.5626,-7.5636,-7.5774,-7.5777,-7.578,-7.5782,0,-7.4721,-7.4726,-7.4822,-7.4922,-7.5001,-7.508,-7.5153,-7.5208,-7.5219,-7.5298,-7.5411,-7.5478,-7.561,-7.5716,-7.5812,-7.5849,-7.5818,-7.5816,-7.5847,-7.5852,-7.5843,-7.5849,-7.5484,-7.5808,-7.5805,-7.5803,-7.5802,-7.5801,-7.4922,-7.5014,-7.5085,-7.5193,-7.5249,-7.5318,-7.5406,-7.5438,-7.5534,-7.5642,-7.5637,-7.5762,-7.5829,-7.5955,-7.5999,-7.6095,-7.6054,-7.6099,-7.6111,-7.6122,-7.6133,-7.5828,-7.6113,-7.6112,-7.6111,-7.6111,-7.611,0,-7.5203,-7.5247,-7.5346,-7.5451,-7.5535,-7.55,-7.5579,-7.5651,-7.5763,-7.5829,-7.5915,-7.6044,-7.6147,-7.6188,-7.6288,-7.6357,-7.6345,-7.6383,-7.6378,-7.6387,-7.6164,-7.6127,-7.6391,-7.6391,-7.6391,-7.6391,-7.6391,-7.6391,-7.5359,-7.5512,-7.5525,-7.5705,-7.5746,-7.587,-7.5919,-7.5982,-7.6034,-7.6182,-7.6268,-7.6294,-7.635,-7.6454,-7.6546,-7.6555,-7.6593,-7.6638,-7.6641,-7.6431,-7.6403,-7.6376,-7.6341,-7.6646,-7.6646,-7.6856,-7.6858,-7.6859]}]]